Home   Weather   Vevey   Past weeks

Flag for Switzerland Past Weather in Vevey, Vaud, Switzerland — Yesterday and Last 2 Weeks

Now
32 °F

Chilly.


Feels Like: 26 °F
Forecast: 34 / 54 °F
Wind: 6 mph from Northwest

Location: Aigle

Current Time: Dec 8, 2016 at 1:24:21 am

Latest Report: Dec 7, 2016 at 11:00 pm


Visibility: N/A

Pressure: 30.67 "Hg

Humidity: 89%

Dew Point: 29 °F

Location of VeveyLocation

Past Weather in Vevey — Graph

°F

Vevey Temperature Yesterday

Maximum temperature yesterday: 41 °F (at 1:00 pm)
Minimum temperature yesterday: 26 °F (at 5:00 am)
Average temperature yesterday: 31 °F

High & Low Weather Summary for the Past Weeks

 TemperatureHumidityPressure
High63 °F (Nov 24, 3:00 am)100% (Nov 27, 1:00 am)30.68 "Hg (Nov 27, 1:00 am)
Low26 °F (Dec 7, 5:00 am)38% (Nov 24, 3:00 am)29.82 "Hg (Nov 25, 4:00 am)
Average38 °F86%30.24 "Hg
* Reported Nov 22 11:00 pm — Dec 7 11:00 pm, Vevey, Weather by CustomWeather, © 2016

Note: Actual official high and low records may vary slightly from our data, if they occured in-between our weather recording intervals... More about our weather records

Advertising

Vevey Weather History for the Previous 24 Hours

Scroll right to see more
 ConditionsComfort  
Time TempWeatherWind HumidityBarometerVisibility
11:00 pm
Wed, Dec 7
32 °FChilly.6 mph89%30.67 "HgN/A
10:00 pm31 °FChilly.3 mph94%30.68 "HgN/A
9:00 pm32 °FChilly.5 mph91%30.67 "HgN/A
8:00 pm31 °FChilly.5 mph94%30.67 "HgN/A
7:00 pm30 °FFog.1 mph97%30.66 "Hg4 mi
6:00 pm32 °FChilly.No wind95%30.63 "HgN/A
5:00 pm33 °FChilly.No wind93%30.62 "HgN/A
4:00 pm35 °FPassing clouds.1 mph88%30.60 "Hg9 mi
2:00 pm40 °FQuite cool.6 mph79%30.56 "HgN/A
1:00 pm41 °FQuite cool.5 mph78%30.56 "HgN/A
12:00 pm38 °FChilly.1 mph73%30.58 "HgN/A
11:00 am35 °FChilly.1 mph85%30.60 "HgN/A
10:00 am31 °FScattered clouds.No wind90%30.60 "Hg16 mi
9:00 am26 °FChilly.1 mph94%30.61 "HgN/A
8:00 am26 °FChilly.2 mph94%30.60 "HgN/A
7:00 am27 °FClear.3 mph93%30.61 "Hg12 mi
6:00 am26 °FChilly.2 mph94%30.60 "HgN/A
5:00 am26 °FChilly.1 mph97%30.60 "HgN/A
4:00 am28 °FFog.1 mph95%30.60 "Hg6 mi
3:00 am28 °FChilly.1 mph96%30.59 "HgN/A
2:00 am28 °FChilly.2 mph98%30.56 "HgN/A
1:00 am30 °FChilly.1 mph93%30.54 "HgN/A
Weather by CustomWeather, © 2016

See weather overviewHow to use our weather pages